Location: Nebraska Star Party
(42.6000°N, 100.8833°W)
Time: 17:13:38
(UTC-05:00)

Amateur Radio Satellites - All Passes

Search period start: 01 August 2015 16:43
Search period end: 02 August 2015 16:43
Location: Nebraska Star Party, 42.6000°N, 100.8833°W

Satellite Date Start Highest point End Downlink Frequencies (MHz)
Time Altitude Azimuth
STARS 01 Aug 16:46:49 16:51:01 42° 98° (E) 16:55:14 437.465
SWISSCUBE 01 Aug 16:51:25 16:54:56 20° 295° (WNW) 16:58:20 437.505
JAS-2 01 Aug 16:58:12 17:03:57 42° 266° (W) 17:10:24 435.910
ITUPSAT 1 01 Aug 17:13:19 17:16:01 15° 298° (WNW) 17:18:30 437.325
KKS-1 01 Aug 17:14:42 17:19:06 59° 287° (WNW) 17:23:30 437.445
GONETS M04 01 Aug 17:19:27 17:27:14 36° 69° (ENE) 17:35:12
HORYU 2 01 Aug 17:19:58 17:24:11 41° 262° (W) 17:28:25 437.375
CUTE-I 01 Aug 17:25:16 17:26:10 11° 57° (ENE) 17:27:24 437.470
DANDE 01 Aug 17:58:02 18:00:01 13° 265° (W) 18:01:59 436.750
AO-7 01 Aug 17:58:04 18:05:35 35° 264° (W) 18:12:59 29.400- 29.500
Cubesat XI-IV 01 Aug 18:05:40 18:09:53 25° 65° (ENE) 18:14:12 437.490
MOZHAYETS 4 01 Aug 18:08:33 18:13:11 66° 101° (E) 18:17:45
SO-50 01 Aug 18:09:41 18:14:06 31° 45° (NE) 18:18:27 436.795
PCSat 01 Aug 18:21:43 18:26:35 33° 49° (NE) 18:31:28 145.827
STARS 01 Aug 18:23:58 18:27:12 20° 294° (WNW) 18:30:20 437.465
Cosmos 2499 01 Aug 18:40:11 18:47:32 30° 66° (ENE) 18:55:11 435.465 / 435.565
CUTE-I 01 Aug 19:00:05 19:05:24 71° 74° (ENE) 19:10:47 437.470
HO-68 01 Aug 19:12:49 19:15:05 12° 49° (NE) 19:17:45 435.675
GONETS M04 01 Aug 19:16:05 19:24:26 52° 270° (W) 19:32:44
VERMONT LUNAR 01 Aug 19:22:52 19:25:36 27° 159° (SSE) 19:28:23 437.305
Cubesat XI-IV 01 Aug 19:44:33 19:49:43 47° 261° (W) 19:54:54 437.490
MOZHAYETS 4 01 Aug 19:47:20 19:49:55 14° 297° (WNW) 19:52:18
SO-50 01 Aug 19:50:07 19:54:45 40° 243° (WSW) 19:59:15 436.795
CUBESAT XI-V 01 Aug 20:04:06 20:08:45 90° 150° (SSE) 20:13:20 437.345
PCSat 01 Aug 20:05:02 20:10:05 40° 248° (WSW) 20:15:05 145.827
COMPASS 1 01 Aug 20:23:30 20:23:36 10° 62° (ENE) 20:23:56 437.405
DOVE 4 01 Aug 20:23:54 20:26:48 19° 67° (ENE) 20:29:50 437.250
BRITE-PL 01 Aug 20:29:06 20:33:26 64° 75° (ENE) 20:37:36 437.365/2234.400
CINEMA 3 01 Aug 20:31:24 20:31:58 10° 62° (ENE) 20:32:46 145.822/145.860
Cosmos 2499 01 Aug 20:32:44 20:41:24 66° 267° (W) 20:50:07 435.465 / 435.565
SEEDS 01 Aug 20:36:35 20:39:25 18° 66° (ENE) 20:42:24 437.485
GOMX 1 01 Aug 20:37:10 20:41:09 44° 73° (ENE) 20:45:08 467.674
CUTE 1.7 + AOD 2 01 Aug 20:39:49 20:43:12 24° 68° (ENE) 20:46:41 437.475
CUTE-I 01 Aug 20:42:57 20:46:08 15° 272° (W) 20:49:02 437.470
STRAND 1 01 Aug 20:47:40 20:52:46 70° 102° (ESE) 20:57:51 437.568
CANX-2 01 Aug 20:47:52 20:51:37 32° 70° (ENE) 20:55:29 2200.000
PRISM 01 Aug 20:54:29 20:58:36 71° 102° (ESE) 21:02:41 437.425
HO-68 01 Aug 20:54:34 21:01:29 58° 68° (ENE) 21:08:29 435.675
VERMONT LUNAR 01 Aug 20:58:56 21:02:04 57° 176° (S) 21:05:12 437.305
AAUSAT CUBESAT 2 01 Aug 21:01:02 21:04:13 22° 68° (ENE) 21:07:31 437.432
ISS 01 Aug 21:07:01 21:09:10 17° 134° (SE) 21:11:23 145.825
PHONESAT 2.4 01 Aug 21:22:52 21:26:02 32° 161° (SSE) 21:29:13 2401.200-2431.200
CUBESAT XI-V 01 Aug 21:44:28 21:45:32 11° 299° (WNW) 21:46:21 437.345
ZACube-1 01 Aug 21:49:27 21:52:33 21° 67° (ENE) 21:55:48 437.345
COMPASS 1 01 Aug 21:54:26 21:58:40 83° 257° (WSW) 22:02:56 437.405
DOVE 4 01 Aug 22:00:34 22:04:24 35° 263° (W) 22:08:14 437.250
CINEMA 3 01 Aug 22:04:27 22:08:35 77° 258° (WSW) 22:12:51 145.822/145.860
RS-15 01 Aug 22:07:51 22:18:16 56° 114° (ESE) 22:29:08 29.354- 29.394
FUNcube-1 01 Aug 22:10:05 22:13:49 32° 70° (ENE) 22:17:41 145.935
SEEDS 01 Aug 22:10:52 22:14:55 42° 262° (W) 22:19:00 437.485
BRITE-PL 01 Aug 22:11:14 22:12:29 11° 272° (W) 22:13:28 437.365/2234.400
UWE-3 01 Aug 22:13:47 22:17:48 47° 73° (ENE) 22:21:58 435.000/436.395/437.385
CUTE 1.7 + AOD 2 01 Aug 22:15:10 22:18:59 31° 265° (W) 22:22:49 437.475
DELFI C3 01 Aug 22:16:49 22:20:40 43° 73° (ENE) 22:24:34 145.870
GOMX 1 01 Aug 22:17:03 22:19:37 15° 270° (W) 22:22:01 467.674
AUBIESAT-1 01 Aug 22:17:47 22:18:43 11° 90° (E) 22:19:57 437.475
Oscar 11 01 Aug 22:21:08 22:25:28 74° 74° (ENE) 22:29:50 145.826/435.025
CANX-2 01 Aug 22:24:08 22:27:36 23° 267° (W) 22:31:01 2200.000
UKube-1 01 Aug 22:24:47 22:27:06 15° 64° (ENE) 22:29:36 .
STRAND 1 01 Aug 22:28:20 22:31:28 16° 299° (WNW) 22:34:26 437.568
Cosmos 2499 01 Aug 22:29:33 22:33:08 13° 285° (WNW) 22:36:04 435.465 / 435.565
HUMSAT D 01 Aug 22:30:19 22:33:35 23° 68° (ENE) 22:36:58 437.325/437.525
CUBEBUG 2 01 Aug 22:30:38 22:34:48 86° 257° (WSW) 22:39:08 437.445
PRISM 01 Aug 22:32:15 22:33:31 11° 298° (WNW) 22:34:34 437.425
AISAT 01 Aug 22:33:03 22:34:42 12° 62° (ENE) 22:36:34 437.250
VERMONT LUNAR 01 Aug 22:35:34 22:38:38 44° 192° (SSW) 22:41:40 437.305
AAUSAT CUBESAT 2 01 Aug 22:35:49 22:39:39 33° 264° (W) 22:43:29 437.432
ISS 01 Aug 22:42:06 22:45:19 61° 329° (NNW) 22:48:34 145.825
HO-68 01 Aug 22:43:37 22:49:40 28° 267° (W) 22:55:34 435.675
AIST 1 01 Aug 22:51:17 22:52:02 11° 65° (ENE) 22:53:03
DX 1 01 Aug 22:52:21 22:56:07 30° 69° (ENE) 22:59:57 434.975-435.025
UNISAT 6 01 Aug 23:00:04 23:01:24 11° 87° (E) 23:03:01 437.425
PHONESAT 2.4 01 Aug 23:00:17 23:03:45 61° 177° (S) 23:07:14 2401.200-2431.200
VELOX 1 01 Aug 23:09:34 23:13:14 27° 68° (ENE) 23:17:00 145.980
BEESAT 3 01 Aug 23:15:21 23:16:26 11° 110° (ESE) 23:17:45 437.485
M-CUBED/EXP-1 PRIME 01 Aug 23:20:41 23:25:26 57° 105° (ESE) 23:30:03 437.505
Cosmos 2491 01 Aug 23:21:44 23:29:15 32° 67° (ENE) 23:36:57 435.465 / 435.565
ESTCUBE 1 01 Aug 23:24:01 23:27:49 28° 68° (ENE) 23:31:43 437.505/2401.250
ZACube-1 01 Aug 23:24:49 23:28:42 36° 264° (W) 23:32:39 437.345
50 SAT 01 Aug 23:40:09 23:43:59 65° 75° (ENE) 23:47:54 437.505
TIGRISAT 01 Aug 23:40:54 23:44:59 29° 95° (E) 23:49:07 435.000
ANTELSAT 01 Aug 23:42:57 23:47:09 32° 95° (E) 23:51:23 437.575/2403.000
FUNcube-1 01 Aug 23:46:55 23:50:14 22° 268° (W) 23:53:32 145.935
YUBILEINY 01 Aug 23:47:09 23:52:03 17° 78° (ENE) 23:57:28 435.215
AUBIESAT-1 01 Aug 23:49:20 23:54:08 86° 288° (WNW) 23:58:46 437.475
UWE-3 01 Aug 23:52:12 23:54:42 15° 271° (W) 23:57:05 435.000/436.395/437.385
DELFI C3 01 Aug 23:53:28 23:56:00 15° 270° (W) 23:58:23 145.870
UKube-1 01 Aug 23:58:35 00:02:49 56° 259° (W) 00:07:05 .
Oscar 11 02 Aug 00:01:47 00:02:15 10° 274° (W) 00:02:26 145.826/435.025
HUMSAT D 02 Aug 00:05:30 00:09:12 30° 265° (W) 00:12:54 437.325/437.525
AISAT 02 Aug 00:06:21 00:10:46 73° 258° (WSW) 00:15:11 437.250
BEESAT 2 02 Aug 00:11:29 00:15:12 34° 117° (ESE) 00:18:59 435.950
VERMONT LUNAR 02 Aug 00:12:56 00:14:55 15° 207° (SSW) 00:16:52 437.305
CUBEBUG 1 02 Aug 00:18:04 00:22:26 83° 76° (ENE) 00:26:48 437.445
ISS 02 Aug 00:19:47 00:22:15 19° 349° (NNW) 00:24:42 145.825
RS-15 02 Aug 00:20:23 00:30:59 49° 319° (NW) 00:41:56 29.354- 29.394
POLYITAN 1 02 Aug 00:20:49 00:24:35 29° 96° (E) 00:28:22 437.675
AIST 1 02 Aug 00:26:03 00:30:18 70° 265° (W) 00:34:31
DX 1 02 Aug 00:28:45 00:32:24 25° 265° (W) 00:35:57 434.975-435.025
UNISAT 6 02 Aug 00:34:06 00:38:48 77° 284° (WNW) 00:43:31 437.425
POPSAT HIP 1 02 Aug 00:37:21 00:41:25 43° 98° (E) 00:45:31 437.405
BUGSAT 1 02 Aug 00:37:36 00:41:01 26° 95° (E) 00:44:31 437.445
PHONESAT 2.4 02 Aug 00:38:11 00:41:33 45° 194° (SSW) 00:44:54 2401.200-2431.200
QB50P2 02 Aug 00:45:08 00:49:21 56° 100° (E) 00:53:34 145.880/145.840
VELOX 1 02 Aug 00:45:53 00:49:44 29° 265° (W) 00:53:34 145.980
BEESAT 3 02 Aug 00:49:48 00:53:52 71° 304° (NW) 00:57:58 437.485
SPROUT 02 Aug 00:51:05 00:55:14 55° 74° (ENE) 00:59:27 437.525
M-CUBED/EXP-1 PRIME 02 Aug 00:56:20 00:59:47 19° 301° (WNW) 01:03:04 437.505
TISAT 1 02 Aug 00:59:51 01:03:47 42° 72° (ENE) 01:07:46 437.305
ESTCUBE 1 02 Aug 01:00:37 01:04:38 30° 265° (W) 01:08:36 437.505/2401.250
ITUPSAT 1 02 Aug 01:07:33 01:08:44 11° 60° (ENE) 01:10:11 437.325
DUCHIFAT 1 02 Aug 01:08:44 01:13:00 85° 284° (WNW) 01:17:15 145.980
QB50P1 02 Aug 01:12:40 01:16:56 74° 284° (WNW) 01:21:11 145.935-145.965
NANOSAT C BR1 02 Aug 01:13:33 01:17:48 74° 285° (WNW) 01:22:03 145.865
TIGRISAT 02 Aug 01:17:34 01:21:41 30° 291° (WNW) 01:25:45 435.000
Cosmos 2491 02 Aug 01:18:11 01:26:41 58° 268° (W) 01:35:05 435.465 / 435.565
ANTELSAT 02 Aug 01:19:48 01:23:50 28° 292° (WNW) 01:27:48 437.575/2403.000
AUBIESAT-1 02 Aug 01:26:07 01:28:07 12° 305° (NW) 01:29:55 437.475
YUBILEINY 02 Aug 01:39:00 01:47:43 87° 98° (E) 01:56:32 435.215
O/OREOS (USA 219) 02 Aug 01:41:38 01:45:03 23° 103° (ESE) 01:48:37 437.305
AIST 2 02 Aug 01:49:23 01:53:38 84° 123° (ESE) 01:57:56 435.215
BEESAT 2 02 Aug 01:49:49 01:53:19 26° 314° (NW) 01:56:48 435.950
POLYITAN 1 02 Aug 01:56:50 02:00:23 25° 292° (WNW) 02:03:52 437.675
ISS 02 Aug 01:57:11 01:59:32 18° 9° (N) 02:01:54 145.825
BEESAT 02 Aug 01:59:36 02:03:53 34° 69° (ENE) 02:08:15 436.000
BUGSAT 1 02 Aug 02:13:01 02:16:26 26° 291° (WNW) 02:19:49 437.445
POPSAT HIP 1 02 Aug 02:14:04 02:17:00 18° 294° (WNW) 02:19:49 437.405
PHONESAT 2.4 02 Aug 02:16:50 02:19:03 16° 209° (SSW) 02:21:12 2401.200-2431.200
SWISSCUBE 02 Aug 02:19:49 02:24:31 59° 73° (ENE) 02:29:16 437.505
QB50P2 02 Aug 02:22:24 02:24:50 15° 296° (WNW) 02:27:06 145.880/145.840
SPROUT 02 Aug 02:29:36 02:31:45 13° 271° (W) 02:33:41 437.525
BEESAT 3 02 Aug 02:31:11 02:32:36 11° 325° (NW) 02:33:53 437.485
TISAT 1 02 Aug 02:37:04 02:39:48 16° 269° (W) 02:42:24 437.305
RS-15 02 Aug 02:38:20 02:47:07 25° 351° (N) 02:56:06 29.354- 29.394
KKS-1 02 Aug 02:39:06 02:41:30 15° 63° (ENE) 02:44:03 437.445
Oscar 19 02 Aug 02:39:14 02:43:55 35° 96° (E) 02:48:40 437.125/150
ITUPSAT 1 02 Aug 02:41:07 02:45:57 86° 76° (ENE) 02:50:48 437.325
Cosmos 2504 02 Aug 02:46:15 02:52:00 28° 84° (E) 02:58:16 435.465 / 435.565
O/OREOS (USA 219) 02 Aug 03:20:08 03:24:18 36° 300° (WNW) 03:28:29 437.305
AIST 2 02 Aug 03:30:17 03:32:49 15° 322° (NW) 03:35:14 435.215
ISS 02 Aug 03:33:21 03:36:32 48° 28° (NNE) 03:39:43 145.825
BEESAT 02 Aug 03:37:43 03:41:48 26° 266° (W) 03:45:47 436.000
YUBILEINY 02 Aug 03:39:30 03:45:56 21° 300° (WNW) 03:52:03 435.215
STARS 02 Aug 03:44:20 03:48:24 40° 71° (ENE) 03:52:31 437.465
Gurwin Techsat 1B 02 Aug 03:45:34 03:50:38 44° 98° (E) 03:55:42 435.225
SWISSCUBE 02 Aug 03:59:54 04:02:50 15° 271° (W) 04:05:34 437.505
ITAMSAT 1 02 Aug 04:02:07 04:07:12 54° 100° (E) 04:12:15 435.822/435.867
JAS-2 02 Aug 04:05:50 04:12:47 35° 92° (E) 04:19:45 435.910
AO-7 02 Aug 04:07:24 04:11:29 15° 85° (E) 04:16:10 29.400- 29.500
KKS-1 02 Aug 04:13:20 04:17:42 59° 259° (W) 04:22:05 437.445
Oscar 19 02 Aug 04:18:41 04:23:13 31° 293° (WNW) 04:27:40 437.125/150
ITUPSAT 1 02 Aug 04:23:52 04:24:36 10° 274° (W) 04:24:58 437.325
Cosmos 2504 02 Aug 04:36:44 04:43:44 55° 284° (WNW) 04:51:15 435.465 / 435.565
RS-15 02 Aug 04:54:40 05:04:27 31° 25° (NNE) 05:14:46 29.354- 29.394
ISS 02 Aug 05:10:11 05:12:47 22° 225° (SW) 05:15:22 145.825
HORYU 2 02 Aug 05:10:18 05:14:25 35° 97° (E) 05:18:33 437.375
MOZHAYETS 4 02 Aug 05:10:51 05:15:26 66° 75° (ENE) 05:20:06
STARS 02 Aug 05:21:53 05:25:03 19° 268° (W) 05:28:06 437.465
Gurwin Techsat 1B 02 Aug 05:26:03 05:30:24 26° 295° (WNW) 05:34:39 435.225
DANDE 02 Aug 05:27:36 05:30:43 56° 99° (E) 05:33:24 436.750
CUBESAT XI-V 02 Aug 05:34:25 05:35:42 11° 61° (ENE) 05:37:15 437.345
CUSAT 1 02 Aug 05:40:38 05:43:19 39° 283° (WNW) 05:45:47 437.405
ITAMSAT 1 02 Aug 05:42:31 05:46:21 21° 297° (WNW) 05:50:02 435.822/435.867
JAS-2 02 Aug 05:50:28 05:58:04 55° 291° (WNW) 06:05:32 435.910
AO-7 02 Aug 05:57:27 06:05:50 78° 106° (ESE) 06:14:09 29.400- 29.500
GONETS M04 02 Aug 06:21:37 06:29:24 40° 87° (E) 06:37:20
STRAND 1 02 Aug 06:27:59 06:30:41 15° 61° (ENE) 06:33:36 437.568
HORYU 2 02 Aug 06:47:14 06:50:54 24° 293° (WNW) 06:54:27 437.375
MOZHAYETS 4 02 Aug 06:50:58 06:53:13 13° 273° (W) 06:55:13
RS-15 02 Aug 07:07:32 07:19:19 75° 53° (NE) 07:31:33 29.354- 29.394
CUBESAT XI-V 02 Aug 07:07:50 07:12:32 87° 258° (WSW) 07:17:13 437.345
CUTE-I 02 Aug 07:17:03 07:21:26 26° 93° (E) 07:25:53 437.470
Cosmos 2499 02 Aug 07:20:14 07:25:00 19° 79° (E) 07:30:23 435.465 / 435.565
BEESAT 3 02 Aug 07:31:20 07:33:05 13° 36° (NE) 07:34:56 437.485
JAS-2 02 Aug 07:38:25 07:41:38 13° 309° (NW) 07:44:24 435.910
PRISM 02 Aug 07:44:49 07:48:55 57° 73° (ENE) 07:53:03 437.425
AO-7 02 Aug 07:51:16 07:57:55 27° 306° (NW) 08:04:19 29.400- 29.500
Cubesat XI-IV 02 Aug 08:00:50 08:06:09 66° 101° (ESE) 08:11:27 437.490
STRAND 1 02 Aug 08:04:11 08:09:20 77° 258° (WSW) 08:14:30 437.568
GONETS M04 02 Aug 08:17:52 08:26:12 46° 287° (WNW) 08:34:27
BEESAT 2 02 Aug 08:29:45 08:33:19 29° 47° (NE) 08:36:53 435.950
BRITE-PL 02 Aug 08:33:02 08:36:06 19° 92° (E) 08:39:27 437.365/2234.400
AIST 2 02 Aug 08:34:01 08:35:16 11° 34° (NNE) 08:36:41 435.215
GOMX 1 02 Aug 08:38:50 08:40:53 13° 89° (E) 08:43:14 467.674
CUTE-I 02 Aug 08:56:41 09:01:41 41° 291° (WNW) 09:06:36 437.470
AUBIESAT-1 02 Aug 09:04:45 09:07:11 15° 57° (ENE) 09:09:51 437.475
PCSat 02 Aug 09:04:59 09:09:08 24° 108° (ESE) 09:13:27 145.827
BEESAT 3 02 Aug 09:07:38 09:11:43 85° 58° (ENE) 09:15:42 437.485
Cosmos 2499 02 Aug 09:09:43 09:17:10 80° 280° (W) 09:25:16 435.465 / 435.565
RS-15 02 Aug 09:20:51 09:31:03 34° 253° (WSW) 09:41:09 29.354- 29.394
PRISM 02 Aug 09:22:49 09:24:46 13° 271° (W) 09:26:30 437.425
COMPASS 1 02 Aug 09:38:26 09:40:51 15° 90° (E) 09:43:25 437.405
Cubesat XI-IV 02 Aug 09:42:11 09:45:47 18° 298° (WNW) 09:49:11 437.490
SEEDS 02 Aug 09:54:32 09:58:15 29° 95° (E) 10:01:59 437.485
DOVE 4 02 Aug 09:57:25 10:01:56 52° 99° (E) 10:06:45 437.250
CINEMA 3 02 Aug 09:58:21 10:02:12 25° 94° (E) 10:06:15 145.822/145.860
CUTE 1.7 + AOD 2 02 Aug 09:59:10 10:03:14 40° 97° (E) 10:07:18 437.475
UNISAT 6 02 Aug 10:00:38 10:01:50 11° 61° (ENE) 10:03:17 437.425
SO-50 02 Aug 10:04:25 10:09:04 58° 119° (ESE) 10:13:55 436.795
UWE-3 02 Aug 10:05:46 10:06:08 10° 86° (E) 10:06:49 435.000/436.395/437.385
CANX-2 02 Aug 10:07:38 10:11:54 57° 100° (E) 10:16:06 2200.000
BEESAT 2 02 Aug 10:07:47 10:11:20 29° 245° (WSW) 10:14:49 435.950
HO-68 02 Aug 10:08:47 10:15:50 56° 101° (E) 10:22:52 435.675
M-CUBED/EXP-1 PRIME 02 Aug 10:09:05 10:13:10 78° 71° (ENE) 10:17:38 437.505
Oscar 11 02 Aug 10:09:33 10:11:29 13° 88° (E) 10:13:36 145.826/435.025
AIST 2 02 Aug 10:10:31 10:14:43 67° 55° (NE) 10:18:49 435.215
BRITE-PL 02 Aug 10:10:40 10:14:51 43° 287° (WNW) 10:19:16 437.365/2234.400
GOMX 1 02 Aug 10:14:57 10:19:27 66° 285° (WNW) 10:24:16 467.674
AAUSAT CUBESAT 2 02 Aug 10:17:42 10:21:32 34° 96° (E) 10:25:24 437.432
CUBEBUG 2 02 Aug 10:21:19 10:24:43 20° 91° (E) 10:28:18 437.445
AUBIESAT-1 02 Aug 10:37:19 10:41:21 60° 254° (WSW) 10:45:45 437.475
TIGRISAT 02 Aug 10:40:39 10:44:18 27° 68° (ENE) 10:48:05 435.000
ANTELSAT 02 Aug 10:42:52 10:46:38 29° 69° (ENE) 10:50:33 437.575/2403.000
PCSat 02 Aug 10:46:59 10:52:15 52° 306° (NW) 10:57:34 145.827
Cosmos 2499 02 Aug 11:07:31 11:12:05 16° 304° (NW) 11:16:25 435.465 / 435.565
ZACube-1 02 Aug 11:12:04 11:16:21 40° 97° (E) 11:20:41 437.345
COMPASS 1 02 Aug 11:12:45 11:16:50 47° 287° (WNW) 11:20:51 437.405
POLYITAN 1 02 Aug 11:14:47 11:18:11 25° 68° (ENE) 11:21:40 437.675
BUGSAT 1 02 Aug 11:28:48 11:31:48 21° 68° (ENE) 11:34:53 437.445
DELFI C3 02 Aug 11:29:46 11:33:49 67° 101° (E) 11:37:50 145.870
SEEDS 02 Aug 11:30:24 11:33:57 25° 291° (WNW) 11:37:24 437.485
POPSAT HIP 1 02 Aug 11:30:50 11:34:38 35° 71° (ENE) 11:38:31 437.405
FUNcube-1 02 Aug 11:33:00 11:37:32 65° 101° (E) 11:42:05 145.935
UNISAT 6 02 Aug 11:33:38 11:37:59 81° 257° (WSW) 11:42:29 437.425
CINEMA 3 02 Aug 11:35:09 11:39:28 36° 289° (WNW) 11:43:53 145.822/145.860
CUTE 1.7 + AOD 2 02 Aug 11:35:47 11:38:53 19° 293° (WNW) 11:41:51 437.475
DOVE 4 02 Aug 11:36:12 11:39:25 18° 294° (WNW) 11:42:35 437.250
QB50P2 02 Aug 11:38:38 11:42:37 45° 72° (ENE) 11:46:41 145.880/145.840
UWE-3 02 Aug 11:38:41 11:43:19 83° 281° (W) 11:48:00 435.000/436.395/437.385
Oscar 11 02 Aug 11:43:48 11:48:07 59° 286° (WNW) 11:52:22 145.826/435.025
CANX-2 02 Aug 11:44:58 11:47:23 14° 296° (WNW) 11:49:38 2200.000
UKube-1 02 Aug 11:45:51 11:49:10 22° 94° (E) 11:52:34 .
SO-50 02 Aug 11:46:06 11:50:01 23° 320° (NW) 11:53:56 436.795
HUMSAT D 02 Aug 11:48:08 11:52:13 39° 97° (E) 11:56:17 437.325/437.525
YUBILEINY 02 Aug 11:48:27 11:56:49 45° 72° (ENE) 12:05:13 435.215
O/OREOS (USA 219) 02 Aug 11:49:43 11:54:11 50° 63° (ENE) 11:58:40 437.305
AIST 2 02 Aug 11:51:01 11:52:46 12° 250° (WSW) 11:54:19 435.215
AAUSAT CUBESAT 2 02 Aug 11:53:44 11:56:58 21° 292° (WNW) 12:00:04 437.432
AISAT 02 Aug 11:57:00 12:00:12 20° 92° (E) 12:03:31 437.250
HO-68 02 Aug 11:57:05 12:03:15 31° 299° (WNW) 12:09:16 435.675
CUBEBUG 2 02 Aug 11:57:12 12:01:37 43° 288° (WNW) 12:06:04 437.445
DUCHIFAT 1 02 Aug 12:01:26 12:05:36 77° 76° (ENE) 12:09:49 145.980
QB50P1 02 Aug 12:05:45 12:09:57 89° 77° (ENE) 12:14:11 145.935-145.965
NANOSAT C BR1 02 Aug 12:06:25 12:10:36 89° 79° (E) 12:14:50 145.865
CUBEBUG 1 02 Aug 12:07:39 12:09:55 14° 90° (E) 12:12:22 437.445
DX 1 02 Aug 12:15:24 12:19:38 50° 100° (E) 12:23:52 434.975-435.025
TIGRISAT 02 Aug 12:17:11 12:20:59 29° 265° (W) 12:24:50 435.000
ANTELSAT 02 Aug 12:19:42 12:23:25 26° 266° (W) 12:27:10 437.575/2403.000
Cosmos 2491 02 Aug 12:24:11 12:31:46 36° 86° (E) 12:39:30 435.465 / 435.565
Cosmos 2504 02 Aug 12:33:35 12:34:28 10° 51° (NE) 12:36:03 435.465 / 435.565
VELOX 1 02 Aug 12:34:51 12:39:07 48° 99° (E) 12:43:24 145.980
PCSat 02 Aug 12:35:08 12:37:04 12° 328° (NNW) 12:38:48 145.827
ZACube-1 02 Aug 12:48:57 12:52:28 22° 293° (WNW) 12:55:55 437.345
50 SAT 02 Aug 12:49:04 12:53:05 90° 298° (WNW) 12:57:03 437.505
POLYITAN 1 02 Aug 12:50:19 12:54:00 29° 265° (W) 12:57:39 437.675
ESTCUBE 1 02 Aug 12:51:54 12:56:18 52° 99° (E) 13:00:41 437.505/2401.250
AIST 1 02 Aug 12:55:48 13:00:07 66° 96° (E) 13:04:25
BUGSAT 1 02 Aug 13:03:27 13:07:07 32° 263° (W) 13:10:44 437.445
DELFI C3 02 Aug 13:07:01 13:08:23 11° 297° (WNW) 13:09:33 145.870
POPSAT HIP 1 02 Aug 13:07:31 13:10:40 20° 268° (W) 13:13:42 437.405
FUNcube-1 02 Aug 13:10:52 13:13:23 14° 296° (WNW) 13:15:43 145.935
QB50P2 02 Aug 13:16:09 13:18:49 16° 270° (W) 13:21:18 145.880/145.840
UKube-1 02 Aug 13:21:28 13:25:23 34° 291° (WNW) 13:29:17 .
HUMSAT D 02 Aug 13:24:29 13:27:42 20° 293° (WNW) 13:30:48 437.325/437.525
O/OREOS (USA 219) 02 Aug 13:30:14 13:33:15 17° 259° (W) 13:36:06 437.305
Gurwin Techsat 1B 02 Aug 13:32:16 13:33:23 11° 57° (ENE) 13:34:48 435.225
AISAT 02 Aug 13:32:50 13:36:58 39° 289° (WNW) 13:41:03 437.250
CUBEBUG 1 02 Aug 13:42:26 13:46:38 52° 287° (WNW) 13:50:51 437.445
ITAMSAT 1 02 Aug 13:45:03 13:47:06 13° 59° (ENE) 13:49:26 435.822/435.867
YUBILEINY 02 Aug 13:45:30 13:53:37 42° 272° (W) 14:01:36 435.215
DX 1 02 Aug 13:52:44 13:55:31 16° 296° (WNW) 13:58:10 434.975-435.025
Oscar 19 02 Aug 13:56:41 14:01:38 54° 72° (ENE) 14:06:39 437.125/150
VELOX 1 02 Aug 14:12:22 14:15:20 17° 295° (WNW) 14:18:10 145.980
SPROUT 02 Aug 14:12:43 14:17:02 80° 283° (WNW) 14:21:20 437.525
TISAT 1 02 Aug 14:18:47 14:23:00 72° 102° (ESE) 14:27:13 437.305
Cosmos 2491 02 Aug 14:19:54 14:28:24 52° 286° (WNW) 14:36:52 435.465 / 435.565
Cosmos 2504 02 Aug 14:20:56 14:29:07 53° 75° (ENE) 14:37:30 435.465 / 435.565
SWISSCUBE 02 Aug 14:21:01 14:23:26 14° 89° (E) 14:26:05 437.505
JAS-2 02 Aug 14:21:16 14:24:49 16° 54° (NE) 14:28:52 435.910
ESTCUBE 1 02 Aug 14:29:54 14:32:47 17° 296° (WNW) 14:35:32 437.505/2401.250
AIST 1 02 Aug 14:36:44 14:38:20 11° 295° (WNW) 14:39:42
ITUPSAT 1 02 Aug 14:41:52 14:45:24 21° 92° (E) 14:49:03 437.325
AO-7 02 Aug 15:06:39 15:13:09 27° 55° (NE) 15:19:52 29.400- 29.500
Gurwin Techsat 1B 02 Aug 15:07:15 15:12:33 74° 74° (ENE) 15:17:53 435.225
ITAMSAT 1 02 Aug 15:20:41 15:25:55 88° 80° (E) 15:31:11 435.822/435.867
BEESAT 02 Aug 15:36:12 15:41:00 75° 102° (ESE) 15:45:46 436.000
Oscar 19 02 Aug 15:37:44 15:41:23 19° 270° (W) 15:44:53 437.125/150
TISAT 1 02 Aug 15:56:45 15:58:15 11° 297° (WNW) 15:59:32 437.305
SWISSCUBE 02 Aug 15:57:04 16:01:48 63° 287° (WNW) 16:06:29 437.505
JAS-2 02 Aug 16:02:33 16:08:42 80° 74° (ENE) 16:15:46 435.910
DANDE 02 Aug 16:03:08 16:06:50 47° 78° (ENE) 16:11:47 436.750
KKS-1 02 Aug 16:04:05 16:07:43 25° 94° (E) 16:11:25 437.445
HORYU 2 02 Aug 16:09:10 16:13:12 35° 70° (ENE) 16:17:18 437.375
CUSAT 1 02 Aug 16:11:59 16:16:15 85° 261° (W) 16:21:59 437.405
Cosmos 2504 02 Aug 16:13:35 16:21:06 36° 274° (W) 16:28:35 435.465 / 435.565
ITUPSAT 1 02 Aug 16:18:59 16:23:32 43° 290° (WNW) 16:28:01 437.325
GONETS M04 02 Aug 16:31:02 16:36:58 20° 60° (ENE) 16:43:18
